Torna al catalogo

STARLINK-30329

AttivoComunicazioniVLEO
NORAD 57635·PAYLOAD·🇺🇸 United States

Lanciato Aug 17, 2023 da Cape Canaveral Space Force Station

Loading…

Prossimi Passaggi (prossime 24 ore)

TLE

AggiornatoSource: CelesTrak SupGP

Epoca: Sep 14, 2026, 22:24 UTC

1 57635C 23122D   26257.93381944 -.00009565  00000+0 -34654-3 0  2577
2 57635  43.0004 104.0478 0001395 274.6678 168.2373 15.27573631    12

Traccia STARLINK-30329 in tempo reale con AllMySat

Download on the App Store